星链-34497 (STARLINK-34497)

导读

STARLINK-34497是美国SpaceX星链星座的卫星,于2025年6月28日发射升空,属于星链星座低轨互联网卫星组网计划的组成部分。星链系统旨在为全球用户提供全天候、低时延的高速卫星互联网接入服务,覆盖地面网络难以触及的偏远区域,这颗卫星将进一步扩充星链星座的服务容量与覆盖范围。

Basic Information
目录编号:
64696
目录名称:
STARLINK-34497
国际标识:
2025-142A
轨道中心:
EARTH
卫星名称:
星链-34497
卫星全名:
星链-34497 (STARLINK-34497)
卫星状态:
在轨 (已飞行434 天)
发射日期:
2025-06-28 UTC
国别 :
美国 (US)
星等 :
--
Orbit Information
数据来源 国际轨道数据 AOE轨道数据
星历时间 2026-09-05T06:00:02+0800
6小时前
查看轨道信息
2026-08-31T06:00:00+0800
5天前
查看轨道信息
半长轴 6889.278km 6950.197km
偏心率 0.0007176 0.0003656
轨道倾角 70.003° 69.998°
近地点辐角 274.829° 269.805°
升交点赤经 222.359° 235.128°
平近点角 56.487° 295.521°
近地点 506.197km 569.519km
远地点 516.085km 574.601km
周期 94.846分钟 96.107分钟
每日圈数 15.182463 14.983288
Detailed Information
固有亮度:
5
最大亮度:
2.5
卫星平台:
Starlink V1.0
覆盖范围:
全球
运营商:
太空探索技术公司
运营商所在国:
美国
制造商(研发单位):
太空探索技术公司
制造商所在国:
美国
使用方式:
暂无
Satellite Introduction
Starlink 计划是 SpaceX 推出的全球卫星互联网项目,通过发射低轨道卫星,为全球尤其是偏远地区提供高速、低延迟的互联网服务。自 2019 年起,Starlink 已部署数千颗卫星,旨在缩小全球数字鸿沟,推动互联网普及。该项目还为军事、航空等行业提供通信支持,带来广泛经济效益。
2D Orbit Map
3D Orbit Map
Orbit Altitude Analysis Chart
Orbit Inclination Analysis Chart
Orbit Comprehensive Analysis Chart
View Comprehensive Chart
Conjunction Data List
Event ID Objects TCA Miss Dist (km) Collision Risk Probability Collision Risk Index (CRI) Action
CDM_260907-060406-207506-469621
2026-09-07T
06:04:20+0000
1.236 km
极远距离
1.198577E-5 中风险 0.57
CDM_260906-120504-780706-469621
2026-09-06T
12:05:24+0000
1.712 km
极远距离
3.818255E-6 低风险 0.47
CDM_260907-052605-362306-469621
2026-09-07T
05:26:35+0000
1.676 km
极远距离
3.560115E-6 低风险 0.46
CDM_260906-115104-858606-469621
2026-09-06T
11:51:57+0000
2.203 km
极远距离
2.130599E-6 低风险 0.42
CDM_260906-183006-469606-970621
2026-09-06T
18:30:43+0000
2.333 km
极远距离
1.494463E-6 低风险 0.38
CDM_260906-235705-362306-469621
2026-09-06T
23:57:40+0000
2.380 km
极远距离
1.489766E-6 低风险 0.38
CDM_260906-155305-954806-469621
2026-09-06T
15:53:29+0000
2.776 km
极远距离
1.357835E-6 低风险 0.38
CDM_260906-002005-849506-469621
2026-09-06T
00:20:08+0000
3.000 km
极远距离
1.048205E-6 低风险 0.35